This is the latest recevied weather packets stored in our database for station/object I1SXT-13. If no packets are shown the sender has not sent any weather packets the latest 10 day(s).
| Time | Temp. | Humidity | Pressure | Rain* | Wind** | Luminosity | Snow |
|---|---|---|---|---|---|---|---|
| 1778233466 | 22.22° C | 56% | 1014.6 hPa | 0 mm | - | - | - |
| 1778233168 | 22.22° C | 55% | 1014.2 hPa | 0 mm | - | - | - |
| 1778232864 | 22.22° C | 62% | 1014.3 hPa | 0 mm | - | - | - |
| 1778232567 | 21.67° C | 61% | 1014.5 hPa | 0 mm | - | - | - |
| 1778232270 | 21.67° C | 56% | 1014.6 hPa | 0 mm | - | - | - |
| 1778231966 | 21.67° C | 59% | 1014.2 hPa | 0 mm | - | - | - |
| 1778231669 | 21.67° C | 55% | 1014.4 hPa | 0 mm | - | - | - |
| 1778231365 | 21.67° C | 55% | 1014.4 hPa | 0 mm | - | - | - |
| 1778231067 | 21.67° C | 57% | 1014.1 hPa | 0 mm | - | - | - |
| 1778230763 | 21.67° C | 64% | 1014.4 hPa | 0 mm | - | - | - |
| 1778230466 | 21.67° C | 61% | 1014.8 hPa | 0 mm | - | - | - |
| 1778230169 | 21.67° C | 53% | 1014.4 hPa | 0 mm | - | - | - |
| 1778229865 | 21.67° C | 53% | 1014.8 hPa | 0 mm | - | - | - |
| 1778229568 | 21.67° C | 56% | 1013.8 hPa | 0 mm | - | - | - |
| 1778229264 | 21.67° C | 59% | 1014.3 hPa | 0 mm | - | - | - |
| 1778228966 | 21.11° C | 62% | 1014.7 hPa | 0 mm | - | - | - |
| 1778228669 | 21.11° C | 52% | 1014.3 hPa | 0 mm | - | - | - |
| 1778228365 | 21.11° C | 54% | 1014 hPa | 0 mm | - | - | - |
| 1778228068 | 21.11° C | 63% | 1013.9 hPa | 0 mm | - | - | - |
| 1778227764 | 20.56° C | 61% | 1013.7 hPa | 0 mm | - | - | - |
| 1778227467 | 20.56° C | 61% | 1014.6 hPa | 0 mm | - | - | - |
| 1778227170 | 20° C | 67% | 1014 hPa | 0 mm | - | - | - |
| 1778226866 | 20° C | 65% | 1013.9 hPa | 0 mm | - | - | - |
| 1778226568 | 20° C | 69% | 1013.9 hPa | 0 mm | - | - | - |
| 1778226264 | 19.44° C | 65% | 1013.8 hPa | 0 mm | - | - | - |
* Rain since midnight (hover to see other rain measurements)
** Current wind speed in m/s (hover to see current wind gust speed)